Location: ??????
(36.0418°N, 43.6351°E)
Time: 03:22:21
(UTC+00:00)

CZ-4B R/B - Pass Details

Date: 07 March 2021
Orbit: 486 x 650 km, 97.9° (Epoch: 22 April)

Event Time Altitude Azimuth Distance (km) Brightness Sun altitude
Rises 02:53:02 0° 4° (N) 2,967 6.6 -7.8°
Reaches altitude 10° 02:55:19 10° 358° (N) 2,059 5.7 -7.4°
Maximum altitude 02:59:36 44° 287° (WNW) 900 3.5 -6.5°
Drops below altitude 10° 03:03:50 10° 215° (SW) 2,035 5.4 -5.6°
Sets 03:06:06 0° 209° (SSW) 2,928 6.3 -5.2°
